Wind_Speed
35 36 37 38 39 40 40 40 41 41 41 41 42 42 42 43 44 45 45 46 47 48 48 48 49 50 49 49 49 50 50 51 51 52 51 51 51 50 48 48 49 49 49
36 37 37 38 39 40 41 41 41 41 42 42 42 43 43 44 45 46 47 47 48 48 48 49 49 48 48 49 49 49 49 50 52 53 54 54 53 52 52 51 51 51 51
35 36 37 38 39 40 40 41 41 41 42 42 42 43 43 44 45 46 47 47 47 47 47 47 47 47 47 48 49 49 50 50 51 53 55 56 56 54 53 53 53 52 52
33 34 35 36 37 38 38 39 40 40 41 42 42 43 44 44 45 46 46 46 47 47 47 48 48 48 48 48 48 49 50 50 51 52 53 55 55 55 54 54 54 54 54
31 32 33 34 35 36 38 38 39 39 40 41 42 43 43 44 45 46 46 46 47 47 46 46 47 47 47 48 48 49 50 50 51 52 52 52 53 54 55 55 55 55 55
30 31 32 32 33 34 35 36 37 37 38 39 40 41 42 43 43 44 44 45 45 46 46 46 46 46 46 46 46 48 49 49 50 51 52 52 52 54 55 56 55 54 54
29 29 29 30 31 31 32 34 35 36 37 37 38 39 40 40 41 41 42 42 43 44 44 45 45 45 45 45 46 46 47 48 49 49 50 52 53 53 54 54 54 54 54
26 27 27 28 29 30 31 32 33 34 35 36 37 38 38 39 39 39 40 41 42 42 42 43 43 44 44 44 44 45 45 46 47 49 50 51 53 54 54 54 54 54 54
24 25 26 27 28 28 29 30 31 32 33 34 35 35 36 36 36 37 38 38 38 39 40 41 42 43 43 43 44 44 45 45 46 47 48 50 51 51 52 54 55 54 53
22 23 24 25 25 26 26 27 28 29 29 30 31 31 31 32 32 33 34 34 35 35 36 37 37 38 40 41 42 43 44 44 45 46 46 47 49 49 51 52 52 53 54
19 21 21 22 22 23 24 25 26 26 27 27 28 28 29 29 30 30 31 31 32 33 33 34 34 35 36 38 39 40 41 42 42 43 43 44 46 48 49 50 50 51 51
18 18 18 19 20 21 21 22 23 24 25 26 26 27 28 28 29 29 29 29 30 31 31 32 32 33 34 35 36 38 38 39 40 41 41 42 43 44 45 47 49 50 51
17 18 18 18 19 20 20 21 22 22 23 23 24 25 26 26 27 27 28 28 29 30 30 30 31 32 32 33 35 36 36 37 38 39 40 41 42 42 43 45 46 48 50
17 17 18 18 18 19 20 20 20 20 21 21 22 23 23 24 25 26 27 27 28 28 28 28 29 30 30 32 33 34 35 36 37 38 39 40 41 42 44 45 47 49 50
18 18 19 19 19 20 20 20 21 21 21 21 22 22 23 24 25 26 26 27 26 26 27 27 28 29 30 31 33 34 35 35 36 37 38 40 41 42 44 45 46 48 49
19 19 20 20 19 19 20 20 20 21 22 22 22 23 24 25 25 26 26 26 27 27 28 29 29 30 31 32 33 34 34 34 35 36 37 39 40 41 43 44 46 47 47
19 19 20 20 20 20 20 20 21 22 22 22 23 24 24 25 26 26 27 27 27 28 29 30 31 32 33 34 34 35 35 35 36 37 38 40 41 43 44 45 46 47 48
18 19 19 20 20 20 21 21 21 22 22 22 23 23 24 24 25 26 27 28 29 30 31 32 32 33 34 35 36 36 36 37 37 38 39 40 41 42 44 45 45 46 47
18 19 19 19 20 21 22 22 22 23 23 24 24 24 25 26 26 27 28 29 30 31 32 32 33 34 35 36 37 37 37 37 38 39 39 40 41 42 43 43 44 45 46
20 21 21 21 22 22 23 23 24 25 25 26 27 27 27 28 28 28 29 30 31 32 33 34 35 36 36 37 37 38 38 38 38 39 40 41 42 43 43 44 44 45 46
23 23 24 25 25 25 25 26 26 27 28 28 29 29 29 29 30 30 31 32 33 33 34 35 36 37 37 38 38 38 38 38 39 40 41 42 43 44 44 44 45 46 46
26 27 27 27 28 28 28 29 29 30 30 31 31 31 32 32 32 33 33 34 34 35 35 36 37 38 38 38 39 39 39 40 41 41 42 43 43 43 43 44 45 46 46
29 30 30 30 30 31 31 31 32 33 33 33 33 34 34 34 34 35 35 35 35 36 37 38 39 39 39 40 40 40 41 41 42 42 43 43 43 43 44 45 45 46 47
32 33 32 32 33 33 33 33 34 35 35 35 35 36 36 36 36 36 36 37 37 38 38 39 39 40 40 41 41 41 42 42 43 43 43 44 44 44 45 46 46 47 48
35 35 34 34 35 35 35 36 36 36 36 36 36 37 37 37 37 37 38 38 39 39 40 40 41 41 42 42 42 42 43 43 43 43 43 44 44 45 46 46 47 48 48
37 37 36 37 37 37 37 37 37 37 36 37 37 37 37 37 37 38 39 39 39 40 41 41 42 43 43 43 43 43 43 43 43 44 44 45 45 45 45 45 46 46 46
Wind_Direction
250 252 254 256 257 258 258 259 260 261 262 263 264 266 267 268 269 269 270 270 270 270 270 271 271 270 270 270 270 270 270 269 267 265 265 265 265 265 266 265 265 264 263
252 254 256 258 260 260 260 260 261 262 263 264 265 266 268 269 270 271 271 272 272 271 271 271 270 270 270 269 269 269 269 268 267 266 265 264 265 265 265 265 264 264 263
254 256 258 260 261 261 262 262 263 263 264 265 266 267 268 269 270 271 272 273 272 272 272 271 270 271 271 270 269 270 270 268 267 267 266 265 264 264 264 265 265 265 264
256 258 260 261 262 263 263 265 266 266 267 267 267 268 269 269 270 271 272 272 273 273 273 272 272 272 272 272 271 271 271 270 269 268 267 266 265 263 262 263 264 265 264
259 261 262 262 263 264 265 266 266 267 267 268 269 270 270 271 271 271 272 272 273 273 273 273 273 272 272 273 272 272 272 272 270 269 267 267 266 265 264 262 262 263 263
262 263 264 264 265 266 266 267 267 268 268 269 270 271 272 273 273 273 273 273 273 273 273 273 273 273 272 273 273 273 273 272 271 270 268 267 265 265 265 263 261 261 262
264 264 265 266 267 268 269 269 269 270 270 271 272 273 274 274 274 274 274 274 274 274 275 274 274 273 272 273 273 274 274 273 272 271 269 268 266 265 265 263 262 262 263
263 264 265 267 269 271 272 272 272 272 273 273 274 274 275 276 276 276 276 276 276 275 275 274 274 273 273 273 274 274 274 274 272 271 270 269 267 265 265 264 264 263 263
264 266 268 270 271 272 273 274 275 276 276 276 276 276 277 277 277 278 278 278 278 278 277 277 276 275 274 274 275 275 275 275 274 273 271 270 267 266 265 264 264 264 264
267 269 271 272 273 274 276 278 279 279 279 278 277 278 279 280 281 281 281 280 279 279 280 281 280 278 277 277 277 278 278 276 275 274 273 270 268 267 266 266 266 266 266
271 274 274 276 277 278 280 282 282 281 280 280 280 280 281 282 283 284 283 282 281 281 282 283 282 281 281 280 280 281 280 278 277 276 274 272 269 268 268 267 267 267 267
276 278 280 280 281 282 284 285 286 284 283 283 283 283 283 284 285 285 286 285 285 286 286 285 284 285 285 284 284 283 282 280 278 277 277 275 273 270 269 268 268 268 268
277 280 284 285 284 284 286 288 290 289 287 286 285 286 286 287 287 287 288 288 289 289 288 288 288 288 288 289 288 287 285 283 282 279 277 276 274 273 271 271 270 270 270
280 283 286 288 288 288 289 290 291 292 292 291 289 288 289 289 289 289 291 291 292 292 291 290 291 291 291 292 292 291 289 286 283 280 278 277 276 274 274 273 272 271 272
282 284 288 290 289 289 290 292 293 294 293 294 293 291 290 291 292 293 293 292 292 292 293 293 294 295 295 295 295 294 291 288 286 283 280 279 279 277 276 276 275 274 274
282 286 287 289 289 289 289 291 294 295 295 294 294 293 292 292 293 294 295 294 293 293 293 293 294 295 296 296 296 295 293 291 287 285 283 282 281 280 279 279 278 277 276
282 285 287 288 288 289 289 290 292 295 295 295 295 296 296 296 296 295 295 295 295 295 294 294 294 295 295 296 296 296 294 293 290 288 286 285 284 283 283 283 282 280 279
283 284 287 288 288 289 290 291 293 294 295 295 297 298 299 299 299 298 298 297 297 297 297 297 297 298 298 298 298 297 296 294 292 290 289 288 287 286 285 284 283 282 281
286 286 287 288 288 290 291 291 292 294 296 297 298 299 300 301 301 301 301 300 300 299 299 299 299 300 300 300 300 299 298 295 293 292 291 290 290 289 288 287 286 285 284
286 286 287 288 288 290 292 293 294 295 296 297 298 299 300 301 301 301 302 303 302 302 302 302 302 301 301 301 301 300 298 296 295 294 293 292 292 291 290 289 288 287 287
285 286 287 288 289 289 291 293 294 294 295 296 297 299 300 300 301 302 302 302 303 303 303 303 303 303 302 302 301 301 300 298 297 296 295 294 293 291 291 290 290 289 289
284 287 287 287 287 288 289 291 292 293 294 295 296 297 298 299 299 300 301 302 302 302 303 303 303 303 303 302 302 301 300 299 298 297 296 296 295 293 292 291 291 291 291
284 285 286 286 286 287 288 289 290 292 293 293 293 294 296 297 297 298 299 300 301 302 302 302 303 303 303 302 302 301 300 300 299 298 297 297 296 294 294 293 293 293 292
283 284 284 284 285 286 288 289 290 291 292 292 292 293 295 295 296 296 297 298 299 300 301 302 302 302 303 302 302 301 301 301 301 300 300 299 298 297 296 296 295 294 293
281 282 282 283 283 285 287 288 289 290 291 291 292 293 294 294 295 295 297 298 299 300 300 301 302 302 303 303 302 302 301 302 302 302 302 301 300 299 298 297 296 296 295
280 281 282 283 283 284 285 287 288 289 290 291 291 292 293 294 295 296 297 298 299 301 301 302 302 302 302 302 302 302 302 302 303 303 303 302 301 300 299 299 299 298 298
Height
5742 5744 5746 5747 5749 5750 5752 5753 5754 5755 5756 5757 5758 5758 5758 5758 5758 5758 5757 5757 5757 5756 5756 5757 5756 5756 5756 5756 5756 5756 5756 5757 5757 5757 5759 5760 5761 5763 5764 5765 5766 5767 5767
5735 5737 5738 5740 5741 5742 5743 5745 5746 5747 5747 5748 5748 5749 5749 5748 5748 5747 5746 5746 5745 5745 5744 5744 5744 5744 5744 5744 5744 5744 5744 5745 5744 5745 5745 5747 5750 5751 5752 5753 5754 5754 5755
5728 5730 5731 5732 5733 5734 5735 5736 5737 5737 5738 5738 5739 5739 5739 5738 5737 5736 5735 5734 5734 5733 5732 5732 5732 5732 5732 5732 5731 5731 5731 5732 5732 5731 5731 5733 5736 5738 5740 5740 5741 5742 5743
5722 5723 5724 5724 5725 5726 5727 5727 5728 5728 5729 5729 5729 5729 5729 5728 5727 5726 5725 5724 5723 5722 5721 5720 5720 5720 5720 5720 5719 5719 5718 5718 5719 5718 5717 5718 5720 5723 5726 5728 5728 5729 5730
5715 5716 5717 5717 5717 5718 5718 5719 5719 5719 5719 5719 5719 5718 5718 5717 5716 5715 5714 5713 5712 5711 5710 5709 5709 5709 5708 5708 5707 5707 5706 5705 5705 5705 5705 5704 5704 5706 5709 5713 5716 5715 5716
5709 5709 5710 5710 5710 5710 5710 5710 5710 5710 5710 5709 5709 5708 5708 5707 5705 5704 5703 5702 5701 5700 5699 5698 5698 5697 5697 5696 5696 5695 5694 5692 5692 5691 5691 5691 5691 5692 5694 5697 5700 5701 5703
5702 5703 5703 5703 5703 5703 5703 5702 5702 5702 5701 5701 5700 5699 5698 5696 5695 5694 5693 5692 5691 5690 5688 5687 5687 5686 5685 5685 5684 5682 5681 5680 5679 5678 5678 5678 5678 5679 5680 5681 5684 5686 5689
5696 5696 5697 5697 5696 5696 5695 5695 5694 5693 5692 5692 5690 5689 5688 5687 5686 5685 5683 5682 5680 5679 5678 5676 5675 5674 5673 5673 5672 5670 5669 5668 5666 5666 5665 5664 5665 5665 5666 5668 5669 5671 5674
5690 5691 5691 5690 5690 5689 5688 5687 5686 5685 5684 5683 5682 5680 5679 5678 5677 5675 5674 5672 5670 5669 5667 5666 5664 5663 5662 5661 5660 5659 5657 5655 5654 5653 5652 5651 5651 5652 5653 5654 5655 5657 5659
5685 5685 5685 5684 5684 5683 5682 5681 5679 5677 5676 5675 5674 5673 5671 5670 5669 5667 5665 5663 5661 5659 5657 5656 5654 5653 5651 5650 5648 5647 5645 5643 5642 5641 5639 5639 5639 5639 5640 5641 5642 5643 5645
5681 5680 5680 5679 5678 5677 5676 5674 5672 5671 5669 5668 5667 5666 5665 5663 5661 5659 5657 5655 5653 5651 5649 5647 5645 5644 5642 5640 5638 5636 5634 5632 5631 5629 5628 5627 5627 5627 5627 5628 5629 5629 5630
5676 5676 5675 5674 5673 5672 5670 5669 5667 5665 5664 5662 5661 5660 5658 5656 5654 5652 5650 5648 5646 5644 5642 5639 5637 5635 5633 5631 5629 5627 5624 5622 5620 5619 5618 5617 5616 5616 5615 5616 5616 5616 5617
5672 5671 5671 5670 5668 5667 5666 5664 5662 5660 5658 5657 5655 5654 5652 5650 5648 5646 5644 5641 5639 5637 5634 5632 5630 5628 5625 5623 5620 5618 5615 5613 5610 5608 5607 5606 5605 5605 5604 5604 5604 5604 5603
5668 5667 5666 5665 5664 5662 5661 5659 5657 5655 5653 5651 5650 5648 5646 5644 5642 5640 5637 5635 5633 5630 5627 5625 5623 5620 5618 5615 5612 5609 5607 5604 5601 5599 5597 5596 5595 5594 5593 5592 5592 5591 5590
5664 5663 5662 5661 5659 5657 5656 5654 5652 5651 5649 5646 5644 5643 5640 5638 5636 5634 5631 5629 5626 5624 5621 5619 5616 5613 5611 5608 5605 5601 5598 5595 5592 5590 5588 5586 5584 5583 5582 5580 5579 5578 5577
5660 5659 5658 5656 5654 5653 5651 5650 5648 5646 5643 5641 5639 5637 5635 5632 5630 5627 5625 5622 5620 5617 5615 5612 5609 5606 5603 5600 5596 5593 5590 5587 5584 5581 5578 5576 5574 5572 5570 5568 5566 5564 5563
5656 5654 5653 5651 5650 5648 5646 5645 5643 5640 5638 5636 5634 5631 5629 5626 5624 5621 5619 5616 5613 5611 5608 5605 5602 5599 5595 5592 5588 5584 5581 5578 5574 5571 5568 5566 5563 5560 5558 5555 5553 5551 5549
5651 5650 5648 5646 5645 5643 5641 5639 5637 5635 5633 5630 5628 5626 5623 5620 5618 5615 5612 5609 5606 5604 5600 5597 5594 5590 5587 5583 5579 5575 5572 5568 5565 5561 5558 5555 5552 5549 5546 5543 5540 5537 5535
5646 5645 5643 5642 5640 5638 5636 5634 5632 5630 5627 5625 5623 5620 5617 5615 5612 5609 5605 5602 5599 5596 5593 5589 5585 5582 5578 5574 5570 5566 5562 5558 5555 5551 5548 5544 5541 5537 5534 5531 5528 5525 5521
5641 5640 5638 5637 5635 5633 5631 5629 5626 5624 5622 5619 5617 5614 5611 5608 5605 5602 5599 5595 5592 5588 5584 5581 5577 5573 5569 5564 5560 5556 5552 5549 5545 5541 5537 5533 5529 5525 5521 5518 5515 5511 5508
5636 5634 5632 5631 5629 5627 5625 5622 5620 5618 5615 5613 5610 5607 5604 5601 5598 5595 5591 5588 5584 5580 5576 5572 5568 5564 5559 5555 5550 5546 5542 5538 5534 5530 5526 5521 5517 5513 5509 5505 5501 5498 5494
5629 5627 5625 5624 5621 5619 5618 5615 5613 5611 5608 5605 5602 5599 5596 5593 5590 5587 5583 5579 5576 5571 5567 5563 5559 5554 5550 5545 5541 5536 5532 5527 5523 5518 5514 5509 5504 5500 5496 5492 5488 5484 5480
5621 5620 5618 5616 5614 5612 5610 5608 5605 5602 5600 5597 5594 5591 5588 5585 5582 5578 5575 5571 5567 5563 5559 5554 5549 5545 5540 5535 5530 5525 5521 5516 5511 5506 5501 5496 5492 5487 5483 5478 5474 5470 5466
5613 5611 5609 5607 5605 5603 5601 5599 5596 5594 5591 5588 5585 5582 5579 5576 5573 5569 5566 5562 5558 5553 5549 5544 5540 5535 5530 5525 5520 5515 5510 5505 5500 5494 5489 5484 5479 5474 5470 5465 5460 5456 5451
5604 5602 5600 5598 5596 5594 5592 5589 5587 5584 5581 5579 5576 5573 5569 5566 5563 5559 5556 5552 5548 5544 5539 5534 5529 5524 5519 5514 5508 5503 5498 5492 5487 5482 5477 5472 5467 5462 5456 5451 5446 5441 5436
5593 5591 5590 5588 5586 5584 5581 5579 5576 5574 5571 5569 5566 5563 5560 5556 5553 5549 5546 5542 5538 5533 5529 5524 5519 5513 5508 5502 5497 5491 5486 5480 5475 5470 5464 5459 5454 5448 5443 5438 5433 5427 5422